Find Starlink 31738

NORAD ID: 59535 Int'l Des: 2024-074 Owner: SPXS Country: US Constellation: starlink operational
LEOCIRCULAR

リアルタイム位置

3D地球を読み込み中...

Starlink 31738について

説明を読み込み中...

次回通過

Passes for default location (London). Set your location on the main map for personalized predictions.

高度履歴

Loading altitude history...

軌道要素

1 59535U 24074B 26123.91491406 .00000405 00000-0 24251-4 0 9999
2 59535 43.0038 27.8124 0001031 273.9380 86.1354 15.27581693114503
Epoch: May 3, 2026 • Age: 9 hours

現在のステータス

高度 482.6 km
速度 7.63 km/s
衛星直下点 2.77°N, 117.9°W
打ち上げ日 Apr 18, 2024
運用期間 2 years
タイプ internet

技術仕様

分類 Payload
質量 730.00 kg
乾燥質量 700.00 kg
総質量 730.00 kg
長さ 0.30 m
直径 4.10 m
スパン 29.00 m
形状 Box + pan
製造者 SPXS
バスタイプ Starlink V2M
フェーズステータス In Orbit
所有者/国 SPXS/US

Most Searched